{"data":{"norad_id":67912,"epoch":"2026-05-25T01:40:14.111328Z","epoch_age_seconds":79249,"freshness":"FRESH","line1":"1 67912U 26036J   26145.06960777  .00013610  00000+0  50271-3 0  9990","line2":"2 67912  42.9959 173.8833 0001144  88.8966 271.2016 15.27610501 15400","mean_motion":15.27610501,"eccentricity":0.0001144,"inclination_deg":42.9959,"raan_deg":173.8833,"arg_perigee_deg":88.8966,"mean_anomaly_deg":271.2016,"bstar":0.00050271,"rev_number":1540,"period_min":94.264866538777,"perigee_km":482.17285735131,"apogee_km":483.74267583391,"semimajor_km":6861.0947665926,"source":"CELESTRAK","updated_at":"2026-05-25T13:38:21.739261Z"}}